Regional Weather Roundup
Issued by NWS

Home | Current Version | Previous Version | Graphics & Text | Print | Product List | Glossary On
Versions: 1 2 3 4 5 6 7 8 9 10 11 12 13 14 15 16 17 18 19 20 21 22 23 24 25 26 27 28 29 30 31 32 33 34 35 36 37 38 39 40 41 42 43 44 45 46 47 48 49 50
000
ASUS43 KIND 230959
RWRIN

WEATHER ROUNDUP FOR INDIANA
NATIONAL WEATHER SERVICE INDIANAPOLIS IN
500 AM EST MON JAN 23 2017

NOTE: "FAIR" INDICATES FEW OR NO CLOUDS BELOW 12,000 FEET WITH NO
SIGNIFICANT WEATHER AND/OR OBSTRUCTIONS TO VISIBILITY.

* - STATION DOES NOT REPORT WEATHER SUCH AS PRECIPITATION OR FOG.

+ - STATION NOT QUALITY CONTROLLED BY THE NATIONAL WEATHER SERVICE.
    USE DATA WITH CAUTION...ESPECIALLY DEWPOINT AND RELATIVE
    HUMIDITY OBSERVATIONS.

INZ001>003-010>013-019-020-231100-
NORTHWEST INDIANA

CITY           SKY/WX    TMP DP  RH WIND       PRES   REMARKS
KNOX *+        CLOUDY    37  34  87 N12G17    29.66R
MONTICELLO +   CLOUDY    40  39  95 N12G21    29.63R FOG

$$

LMZ046-743>745-231100-
SOUTHERN LAKE MICHIGAN

STATION/POSITION TIME  TEMP    WIND        PRES    WAVE
                       AIR SEA DIR/SP/G            HT
                 (UTC) (F)     (DEG/KT/KT) (MB)    (FT)
BURNS HARBOR     0940   36     350/ 11/ 13 1006.4R
MICHIGAN CITY    0930   36     340/ 15/ 16   N/A

$$

INZ004-005-014>016-021>024-231100-
NORTH CENTRAL INDIANA

CITY           SKY/WX    TMP DP  RH WIND       PRES   REMARKS
GOSHEN         CLOUDY    42  40  92 N12       29.62S FOG
SOUTH BEND     CLOUDY    39  39 100 N13       29.66R FOG

$$

INZ006>009-017-018-025>027-231100-
NORTHEAST INDIANA

CITY           SKY/WX    TMP DP  RH WIND       PRES   REMARKS
ANGOLA *+      CLOUDY    46  36  66 N6        29.59F VSB 1/2
FORT WAYNE     FOG       47  45  93 NE14      29.58R VSB 1
KENDALLVILLE + FOG       42  42 100 N8        29.59F VSB 1/2

$$

INZ028-029-035-036-043>045-051>053-231100-
WEST CENTRAL INDIANA

CITY           SKY/WX    TMP DP  RH WIND       PRES   REMARKS
CRAWFORDSVL +  FOG       39  39 100 NW13      29.61S VSB 1
LAFAYETTE      CLOUDY    41  41 100 N9        29.63S
TERRE HAUTE    CLOUDY    43  40  89 N13G21    29.61R FOG

$$

INZ030>032-037>040-046>048-054>057-064-065-231100-
CENTRAL INDIANA

CITY           SKY/WX    TMP DP  RH WIND       PRES   REMARKS
INDIANAPOLIS   CLOUDY    44  43  96 N17       29.55R FOG
-EAGLE CREEK   CLOUDY    44  42  93 N16       29.55R FOG
KOKOMO +       LGT RAIN  43  43 100 N16       29.58F FOG
MT COMFORT *+  CLOUDY    45  45 100 N20       29.54R VSB 3/4
SHELBYVILLE    CLOUDY    50  47  89 N17       29.51R FOG

$$

INZ033-034-041-042-049-050-058-059-231100-
EAST CENTRAL INDIANA

CITY           SKY/WX    TMP DP  RH WIND       PRES   REMARKS
MUNCIE         FOG       48  47  96 N17       29.54R VSB 1/2

$$

INZ060-061-067>069-081>083-085>088-231100-
SOUTHWEST INDIANA

CITY           SKY/WX    TMP DP  RH WIND       PRES   REMARKS
EVANSVILLE     CLOUDY    45  41  86 NW21G31   29.56R
HUNTINGBURG *+ CLOUDY    46  44  93 NW17G26   29.51R FOG

$$

INZ062-063-066-070>080-084-089>092-231100-
SOUTH CENTRAL AND SOUTHEAST INDIANA

CITY           SKY/WX    TMP DP  RH WIND       PRES   REMARKS
BLOOMINGTON    CLOUDY    46  43  89 N10G22    29.54R FOG
MADISON *+     CLOUDY    50  45  81 N9        29.46R
SEYMOUR +      CLOUDY    52  48  87 N20G25    29.47S

$$





USA.gov is the U.S. government's official web portal to all federal, state and local government web resources and services.